Flag for Canada Weather past 2 weeks in Kirkland Lake, Ontario, Canada

19 °F


Feels Like: 8 °F
Forecast: 11 / 32 °F
Wind: 10 mph from South

Location: Earlton

Current Time: Nov 30, 2015 at 8:48:06 AM

Latest Report: Nov 30, 2015 at 8:00 AM

Visibility: 9 mi

Pressure: 30.32 "Hg

Humidity: 100%

Dew point: 19 °F

Location of Kirkland LakeLocation

Historic Weather in Kirkland Lake — Graph


Kirkland Lake temperature yesterday

Maximum temperature yesterday: 27 °F (at 12:00 AM)
Minimum temperature yesterday: 5 °F (at 10:00 PM)
Average temperature yesterday: 20 °F

Past Weeks' High & Low Weather Summary

High55 °F (Nov 19, 6:00 AM)100% (Nov 16, 3:00 AM)30.53 "Hg (Nov 16, 3:00 AM)
Low-2 °F (Nov 28, 4:00 AM)56% (Nov 20, 1:00 PM)29.49 "Hg (Nov 19, 1:00 PM)
Average28 °F85%30.17 "Hg
* Reported Nov 15 7:00 AM — Nov 30 7:00 AM, Kirkland Lake, Weather by CustomWeather, © 2015

Note: Actual official high and low records may vary slightly from our data, if they occured in-between our weather recording intervals... More about our weather records


Kirkland Lake weather history for previous 24 hours

Time TempWeatherWind HumidityBarometerVisibility
7:00 AM
Mon, Nov 30
18 °FOvercast.12 mph93%30.35 "Hg9 mi
6:59 AM18 °FOvercast.12 mph93%30.35 "Hg9 mi
6:00 AM12 °FOvercast.9 mph92%30.38 "Hg9 mi
5:00 AM10 °FOvercast.6 mph92%30.42 "Hg9 mi
4:00 AM9 °FMostly cloudy.7 mph92%30.43 "Hg9 mi
3:51 AM7 °FMostly cloudy.7 mph92%30.43 "Hg9 mi
3:00 AM7 °FLight snow. Overcast.5 mph92%30.45 "Hg9 mi
2:55 AM7 °FLight snow. Overcast.5 mph92%30.46 "Hg9 mi
2:00 AM5 °FClear.5 mph85%30.45 "Hg9 mi
1:00 AM5 °FClear.2 mph92%30.47 "Hg9 mi
12:00 AM7 °FClear.5 mph92%30.48 "Hg9 mi
11:00 PM
Sun, Nov 29
7 °FPassing clouds.2 mph85%30.50 "Hg9 mi
10:00 PM5 °FPassing clouds.2 mph92%30.52 "Hg9 mi
9:00 PM10 °FLight snow. Mostly cloudy.3 mph92%30.53 "Hg9 mi
7:00 PM14 °FPassing clouds.6 mph85%30.52 "Hg9 mi
6:00 PM14 °FLight snow. Overcast.2 mph92%30.52 "Hg8 mi
5:00 PM16 °FLight snow. Overcast.No wind79%30.51 "Hg9 mi
4:51 PM18 °FLight snow. Overcast.2 mph79%30.51 "Hg9 mi
4:00 PM18 °FSunny.2 mph79%30.50 "Hg9 mi
3:53 PM19 °FSunny.3 mph73%30.50 "Hg9 mi
3:00 PM19 °FLight snow. Overcast.No wind73%30.50 "Hg9 mi
2:00 PM19 °FLight snow. Overcast.5 mph68%30.50 "Hg9 mi
1:03 PM21 °FLight snow. Overcast.10 mph68%30.50 "Hg9 mi
12:02 PM21 °FLight snow. Partly sunny.10 mph74%30.48 "Hg9 mi
11:00 AM21 °FOvercast.10 mph74%30.49 "Hg9 mi
10:00 AM21 °FLight snow. More clouds than sun.10 mph86%30.47 "Hg5 mi
9:00 AM21 °FLight snow. Overcast.9 mph86%30.45 "Hg9 mi
8:00 AM21 °FLight snow. Overcast.12 mph86%30.43 "Hg9 mi
Weather by CustomWeather, © 2015

See weather overviewHow to use our weather pages